Flag for Germany Weather past 2 weeks in Neustadt am Rübenberge, Lower Saxony, Germany

Now
41 °F

Partly cloudy.


Feels Like: 30 °F
Forecast: 40 / 49 °F
Wind: 30 mph from West

Location: Wunstorf Airport

Current Time: Mar 30, 2015 at 7:26:30 AM

Latest Report: Mar 30, 2015 at 6:20 AM


Visibility: N/A

Pressure: 29.30 "Hg

Humidity: 81%

Dew point: 36 °F

Location of Neustadt am RübenbergeLocation

Historic Weather in Neustadt am Rübenberge — Graph

°F

Neustadt am Rübenberge temperature yesterday

Maximum temperature yesterday: 52 °F (at 1:20 AM)
Minimum temperature yesterday: 45 °F (at 11:20 PM)
Average temperature yesterday: 50 °F

Past Weeks' High & Low Weather Summary

 TemperatureHumidityPressure
High61 °F (Mar 25, 4:20 PM)100% (Mar 21, 1:20 AM)30.42 "Hg (Mar 21, 1:20 AM)
Low27 °F (Mar 23, 5:20 AM)33% (Mar 19, 5:20 PM)29.09 "Hg (Mar 29, 8:20 PM)
Average43 °F76%30.03 "Hg
* Reported Mar 15 5:20 AM — Mar 30 6:20 AM, Neustadt am Rübenberge, Weather by CustomWeather, © 2015

Note: Actual official high and low records may vary slightly from our data, if they occured in-between our weather recording intervals... More about our weather records

Advertising

Neustadt am Rübenberge weather history for previous 24 hours

 ConditionsComfort  
Time TempWeatherWind HumidityBarometerVisibility
6:20 AM
Mon, Mar 30
41 °FPartly cloudy.30 mph81%29.30 "HgN/A
5:20 AM43 °FRain showers. Passing clouds.21 mph87%29.27 "Hg3 mi
4:20 AM41 °FSprinkles. Partly cloudy.15 mph93%29.27 "Hg3 mi
3:20 AM43 °FSprinkles. Partly cloudy.24 mph81%29.27 "Hg4 mi
2:20 AM45 °FPartly cloudy.25 mph76%29.24 "HgN/A
1:20 AM45 °FPassing clouds.25 mph76%29.24 "HgN/A
12:20 AM43 °FPassing clouds.25 mph87%29.21 "HgN/A
11:20 PM
Sun, Mar 29
45 °FPassing clouds.32 mph81%29.18 "HgN/A
10:20 PM48 °FPassing clouds.38 mph71%29.09 "HgN/A
9:20 PM52 °FOvercast.24 mph82%29.09 "Hg5 mi
8:50 PM52 °FRain. Fog.28 mph82%29.09 "Hg2 mi
8:20 PM50 °FRain. Partly sunny.21 mph94%29.09 "Hg5 mi
7:20 PM50 °FCool.14 mph88%29.12 "Hg2 mi
6:20 PM50 °FCool.16 mph88%29.18 "Hg2 mi
5:20 PM50 °FCool.12 mph88%29.27 "Hg3 mi
4:20 PM48 °FCool.17 mph87%29.33 "Hg3 mi
3:20 PM48 °FCool.15 mph94%29.39 "Hg2 mi
2:20 PM48 °FCool.12 mph94%29.45 "Hg3 mi
1:20 PM48 °FCool.12 mph87%29.47 "Hg3 mi
12:20 PM50 °FCool.16 mph82%29.50 "Hg4 mi
11:20 AM48 °FCool.13 mph94%29.53 "Hg1 mi
10:20 AM48 °FCool.15 mph94%29.53 "Hg1 mi
9:20 AM50 °FCool.16 mph82%29.56 "Hg4 mi
8:20 AM48 °FCool.17 mph94%29.56 "Hg4 mi
7:20 AM50 °FCool.18 mph82%29.56 "Hg4 mi
Weather by CustomWeather, © 2015

See weather overviewHow to use our weather pages